Regional Weather Roundup
Issued by NWS

Home | Current Version | Previous Version | Text Only | Print | Product List | Glossary On
Versions: 1 2 3 4 5 6 7 8 9 10 11 12 13 14 15 16 17 18 19 20 21 22 23 24 25 26 27 28
000
ASUS44 KBMX 240010
RWRAL

ALABAMA REGIONAL WEATHER ROUNDUP
NATIONAL WEATHER SERVICE BIRMINGHAM AL
700 PM CDT FRI JUN 23 2017

NOTE: "FAIR" INDICATES FEW OR NO CLOUDS BELOW 12,000 FEET
WITH NO SIGNIFICANT WEATHER AND/OR OBSTRUCTIONS TO VISIBILITY.

THE REMARK "TC" DENOTES TEMPERATURE IN DEGREES CELSIUS.

ALZ001>011-014-016>018-020-240100-
NORTH ALABAMA

CITY           SKY/WX    TMP DP  RH WIND       PRES   REMARKS
MUSCLE SHOALS  CLOUDY    78  73  84 SW10      29.86R
6HR MIN TEMP:  75; 6HR MAX TEMP:  78; 6HR PCP:  0.79;

HUNTSVILLE     CLOUDY    76  75  97 SW8       29.87R
6HR MIN TEMP:  76; 6HR MAX TEMP:  84; 6HR PCP:  0.12;

DECATUR        CLOUDY    76  73  91 SW10      29.87R
6HR MIN TEMP:  75; 6HR MAX TEMP:  85; 6HR PCP:  0.31;

HALEYVILLE     NOT AVBL
GADSDEN        LGT RAIN  74  73  97 SW5       29.92R
6HR MIN TEMP:  74; 6HR MAX TEMP:  88; 6HR PCP:  0.28;

$$

ALZ012-013-022-023-030>036-040>044-240100-
WEST CENTRAL ALABAMA

CITY           SKY/WX    TMP DP  RH WIND       PRES   REMARKS
TUSCALOOSA     CLOUDY    75  75 100 S10       29.91R
6HR MIN TEMP:  74; 6HR MAX TEMP:  83; 6HR PCP:  0.81;

$$

ALZ015-024>027-033>036-040>044-240100-
CENTRAL ALABAMA

CITY           SKY/WX    TMP DP  RH WIND       PRES   REMARKS
BIRMINGHAM     LGT RAIN  75  73  93 S9        29.94S
6HR MIN TEMP:  74; 6HR MAX TEMP:  88; 6HR PCP:  1.04;

MONTGOMERY     LGT RAIN  79  69  71 W17G24    29.96R
6HR MIN TEMP:  79; 6HR MAX TEMP:  92; 6HR PCP: TRACE;

SHELBY CO ARPT LGT RAIN  74  74 100 S7        29.95R
6HR MIN TEMP:  73; 6HR MAX TEMP:  89; 6HR PCP:  1.61;

MAXWELL AFB    LGT RAIN  75  73  92 W8        29.96R FOG
6HR MIN TEMP:  75; 6HR MAX TEMP:  91; 6HR PCP:  0.07;

GREENVILLE     FAIR      85  71  63 SW7       29.95R HX  90
6HR MIN TEMP:  85; 6HR MAX TEMP:  90;

$$

ALZ019-021-028-029-037-038-045>048-240100-
EAST CENTRAL ALABAMA

CITY           SKY/WX    TMP DP  RH WIND       PRES   REMARKS
ANNISTON       LGT RAIN  73  71  93 SW6       29.94R FOG
6HR MIN TEMP:  73; 6HR MAX TEMP:  88; 6HR PCP:  1.38;

ALEXANDER CITY RAIN      73  71  92 SW7       29.98R
6HR MIN TEMP:  73; 6HR MAX TEMP:  87; 6HR PCP:  0.16;

AUBURN         CLEAR     84  72  67 SW10      29.96R
6HR MIN TEMP:  84; 6HR MAX TEMP:  89;

$$

ALZ051>064-240100-
SOUTHWEST ALABAMA

CITY           SKY/WX    TMP DP  RH WIND       PRES   REMARKS
MOBILE         CLOUDY    83  76  79 S10       29.96R HX  91
6HR MIN TEMP:  82; 6HR MAX TEMP:  87; 6HR PCP: TRACE;

BROOKLEY FIELD PTSUNNY   83  79  88 VRB5      29.97R HX  94
6HR MIN TEMP:  83; 6HR MAX TEMP:  86; 6HR PCP:  0.02;

EVERGREEN      LGT RAIN  84  73  69 S8        29.95R HX  90
6HR MIN TEMP:  84; 6HR MAX TEMP:  91; 6HR PCP: TRACE;

$$

ALZ049-050-065>069-240100-
SOUTHEAST ALABAMA

CITY           SKY/WX    TMP DP  RH WIND       PRES   REMARKS
DOTHAN         PTCLDY    86  71  60 SW13      30.00R HX  91
6HR MIN TEMP:  86; 6HR MAX TEMP:  92;

OZARK          CLEAR     85  71  62 S9        29.96R HX  90
6HR MIN TEMP:  85; 6HR MAX TEMP:  91;

TROY           CLEAR     85  74  69 S10       29.95R HX  92
6HR MIN TEMP:  84; 6HR MAX TEMP:  90;

EUFAULA        FAIR      87  71  58 VRB6      29.93R HX  93
6HR MIN TEMP:  87; 6HR MAX TEMP:  94;

$$




USA.gov is the U.S. government's official web portal to all federal, state and local government web resources and services.